Location: PSU-Greenbush Astrophysical Observatory
(37.5140°N, 94.9880°W)
Time: 08:37:52
(UTC-06:00)

Transit 2A - Pass Details

Date: 29 January 2020
Orbit: 599 x 959 km, 66.7° (Epoch: 28 February)

Event Time Altitude Azimuth Distance (km) Brightness Sun altitude
Rises 04:59:47 0° 323° (NW) 3,056 - -29.1°
Reaches altitude 10° 05:02:07 10° 317° (NW) 2,187 - -28.7°
Maximum altitude 05:06:47 41° 247° (WSW) 1,088 - -27.7°
Exits shadow 05:10:12 19° 187° (S) 1,804 7.8 -27.1°
Drops below altitude 10° 05:11:55 10° 179° (S) 2,401 8.6 -26.7°
Sets 05:14:35 0° 172° (S) 3,390 9.5 -26.2°
